SCP
0 0 0 0 0 0 0 0 0 0 0 0 0 0 0 0 0 0 0 0 0 0 0 1 1 1 1 1 1 1 1 1 1 0 0 0 0 0 0 0 0 0 0
0 0 0 0 0 0 0 0 0 0 0 0 0 0 0 0 0 0 0 0 0 1 1 1 2 1 1 1 1 1 1 1 1 1 0 0 0 0 0 0 0 0 0
0 0 0 0 0 0 0 0 0 0 0 0 0 0 0 0 0 0 0 0 0 1 1 1 1 2 1 1 2 2 1 1 1 1 1 0 0 0 0 0 0 0 0
0 0 0 0 0 0 0 0 0 0 0 0 0 0 0 0 0 0 0 0 1 1 1 1 1 2 2 2 2 2 1 1 1 1 1 1 1 0 0 0 0 0 0
0 0 0 0 0 0 0 0 0 0 0 0 0 0 0 0 0 0 0 0 1 1 1 1 1 1 1 1 1 1 1 2 1 1 1 1 1 1 0 0 0 0 0
0 0 0 0 0 0 0 0 1 0 1 1 1 1 0 0 0 0 0 0 0 1 1 1 1 1 1 1 1 2 2 2 1 1 1 1 1 0 1 0 0 0 0
0 0 0 0 0 0 1 1 0 1 0 0 0 0 0 0 0 0 0 0 0 1 1 1 1 1 1 1 1 2 2 2 1 1 1 0 0 0 1 1 0 0 0
1 1 0 0 0 1 1 1 1 1 0 1 1 1 1 0 0 0 0 1 1 1 2 2 1 1 1 1 2 2 2 1 1 1 1 0 0 0 1 1 0 0 0
1 1 0 1 1 1 1 1 1 1 1 1 0 1 0 0 0 0 1 0 0 0 2 2 1 1 0 0 0 1 1 1 0 0 1 1 0 0 1 0 0 0 0
0 0 0 0 1 1 1 1 1 1 1 1 1 0 0 0 0 0 0 0 0 -0 0 0 0 0 0 0 0 0 0 0 0 0 0 1 0 0 0 0 1 0 0
0 0 0 0 0 0 0 1 1 1 2 2 2 0 0 0 0 0 0 0 0 0 -0 0 0 0 0 0 0 0 0 0 0 0 0 0 0 0 0 0 0 0 -0
0 0 0 0 0 0 0 0 1 1 0 0 0 0 0 0 0 0 0 0 0 0 0 0 0 0 -0 0 0 0 0 0 0 0 0 0 -0 -0 0 0 0 -0 -0
0 0 0 0 0 0 0 0 0 0 0 0 0 0 0 0 0 0 0 0 0 0 0 0 0 0 -0 0 0 0 0 0 0 0 0 0 0 0 0 0 -0 -0 -0
0 0 0 0 0 0 0 0 0 0 0 0 0 0 0 0 0 0 0 0 0 0 0 0 0 -0 0 0 0 0 0 0 0 0 0 0 0 0 0 0 0 0 0
0 0 0 0 0 0 0 0 0 0 0 0 0 0 0 0 0 0 0 0 0 0 0 0 -0 0 0 0 0 0 0 0 0 0 0 0 0 0 0 0 0 0 0
0 0 0 0 0 0 0 0 0 0 0 0 0 0 0 0 0 0 0 0 0 0 0 0 0 0 0 0 0 0 0 0 0 0 0 0 0 0 0 0 0 0 0
0 0 0 0 0 0 0 0 0 0 0 0 0 0 0 0 0 0 0 0 0 0 0 0 0 0 0 0 0 0 0 0 0 0 0 0 0 0 0 0 0 0 0
0 0 0 0 0 0 0 0 0 0 0 0 0 0 0 0 0 0 0 0 0 0 0 0 0 0 0 0 0 0 0 0 0 0 0 0 0 0 0 0 0 0 0
0 0 0 0 0 0 0 0 0 0 0 0 0 0 0 0 0 0 0 0 0 0 0 0 0 0 0 0 0 0 0 0 0 0 0 0 0 0 0 0 0 0 0
0 0 0 0 0 0 0 0 0 0 0 0 0 0 0 0 0 0 0 0 0 0 0 0 -0 -0 0 0 0 0 0 0 0 0 0 0 0 0 0 0 0 0 0
0 0 0 0 0 0 0 0 0 0 0 0 0 0 0 0 0 0 0 0 0 0 0 0 0 0 0 0 0 0 0 0 0 0 0 0 0 0 0 0 0 0 0
0 0 0 0 0 0 0 0 0 0 0 0 0 0 0 0 0 0 0 0 0 -0 0 0 0 0 0 0 0 0 0 0 0 0 0 0 0 0 0 0 0 0 0
0 0 0 0 0 0 0 0 0 0 0 0 0 0 0 0 -0 0 -0 0 0 0 0 0 0 0 0 0 0 0 0 0 0 0 0 0 0 0 0 0 0 0 0
0 0 0 0 0 0 0 0 0 0 0 0 0 0 0 0 -0 -0 -0 0 0 0 0 0 0 0 0 0 0 0 0 0 0 0 0 0 0 0 0 0 0 0 0
0 0 0 0 0 0 0 0 0 0 0 0 0 0 0 0 -0 -0 0 -0 0 0 0 0 0 0 0 0 0 0 0 0 0 0 -0 0 0 0 0 0 0 0 0
0 0 0 0 0 0 0 0 0 0 0 0 0 0 0 0 0 0 0 0 0 0 0 0 0 0 0 0 0 0 0 0 0 0 -0 0 0 0 0 0 0 0 0
Wind_Speed_500mb
57 53 52 51 50 48 47 46 45 45 45 44 43 44 42 39 36 35 34 38 36 29 29 30 31 29 31 34 33 31 30 30 28 26 26 26 27 27 26 23 24 25 25
59 58 57 57 57 55 52 51 50 51 53 52 51 49 48 43 41 42 38 38 37 36 38 38 36 32 35 36 36 36 34 33 33 30 29 29 28 29 28 30 27 28 29
62 60 59 60 60 58 56 56 55 53 54 56 61 57 50 46 43 41 41 43 42 42 46 44 41 40 39 35 34 36 39 35 36 34 32 31 31 32 30 31 34 32 32
63 61 62 65 66 65 62 62 61 59 59 57 56 53 51 51 51 49 50 51 50 50 55 51 48 45 44 43 41 39 38 39 38 37 34 34 32 34 34 33 38 38 38
62 66 66 70 68 68 68 67 69 66 65 66 66 61 59 59 61 55 58 60 58 55 55 48 46 49 50 47 42 43 44 45 45 45 45 42 40 34 38 36 40 43 43
47 48 54 60 62 67 70 70 71 70 73 76 73 72 74 72 72 67 69 68 69 64 57 52 46 49 48 46 48 49 50 48 48 48 51 50 42 40 44 45 46 48 46
53 56 60 65 64 70 75 77 78 76 79 81 80 85 86 82 79 77 77 82 79 70 63 57 53 54 47 40 41 43 44 42 43 47 50 49 49 51 54 54 57 54 55
48 51 57 63 62 70 79 82 80 86 86 86 86 78 71 76 76 72 74 85 88 84 75 71 63 58 47 44 44 45 44 40 42 47 49 55 55 56 61 69 60 68 60
48 50 56 55 61 65 71 74 75 79 82 82 76 73 66 62 66 60 51 49 63 89 90 84 75 63 56 50 49 46 45 46 48 48 54 58 62 65 69 61 61 74 69
52 56 60 61 58 63 67 70 73 76 78 75 75 67 69 74 72 57 78 77 98 129 103 79 77 67 63 55 51 50 50 52 52 48 56 60 63 65 70 78 82 88 63
40 47 55 60 62 63 65 57 60 62 70 79 79 73 57 60 79 71 71 63 46 59 80 83 71 65 64 62 59 56 51 48 45 44 35 48 50 53 65 66 66 69 56
44 45 45 47 48 51 53 54 53 53 59 60 61 67 75 77 77 75 73 71 66 60 68 67 58 62 64 74 69 54 52 50 50 46 37 27 26 38 46 54 54 52 58
30 35 46 52 53 53 56 56 52 48 47 50 56 57 56 57 66 76 76 74 68 61 75 75 66 80 81 69 68 56 52 51 51 48 40 40 51 54 48 53 57 58 58
35 38 42 43 50 50 46 46 43 39 42 47 51 57 65 71 77 78 80 61 48 44 54 74 85 83 65 57 55 45 50 48 46 43 43 46 48 51 49 47 44 49 53
34 38 41 46 49 50 49 44 42 40 38 42 49 56 65 68 73 83 79 71 59 49 60 43 59 69 56 57 49 45 45 40 44 42 43 43 44 41 40 45 46 47 50
40 44 49 50 51 55 54 51 47 41 42 46 49 54 59 65 71 74 71 70 69 70 75 48 63 61 56 51 45 44 42 38 39 36 36 38 45 46 45 49 53 56 56
52 53 50 53 54 53 53 50 51 53 54 51 51 57 58 61 65 66 58 61 65 73 86 61 60 74 52 57 46 49 47 39 37 45 53 53 47 44 47 48 48 52 49
57 60 56 51 50 51 52 54 53 49 48 49 50 52 59 61 66 62 66 71 75 71 86 91 82 80 59 60 48 45 40 39 41 51 51 42 40 47 53 51 50 47 47
64 63 59 57 51 52 52 53 55 52 52 50 49 55 49 53 64 67 67 68 63 76 99 80 72 59 53 46 41 41 39 39 46 49 48 46 42 44 46 43 44 43 44
63 63 67 67 59 63 59 54 54 55 54 57 57 55 58 65 64 66 66 64 64 71 52 56 56 50 44 50 45 38 41 42 39 42 41 46 48 50 56 58 53 44 43
69 70 71 65 69 73 65 56 58 61 62 61 60 55 60 56 53 54 58 51 63 58 61 62 55 54 53 49 44 38 28 20 15 12 15 20 33 40 44 51 53 55 48
75 75 75 74 71 69 63 57 59 65 65 64 61 53 57 61 56 46 49 51 78 77 77 61 54 55 52 39 29 21 14 8 13 19 33 22 25 17 21 30 40 46 50
81 78 78 78 78 73 74 66 70 67 66 62 55 49 45 55 57 54 39 37 45 51 60 54 51 46 38 33 29 18 6 8 19 25 36 37 25 22 22 26 32 38 45
81 85 86 84 83 82 77 75 65 63 62 64 54 53 56 53 64 60 51 46 50 44 44 41 35 38 35 31 21 10 3 11 20 30 34 36 36 29 22 18 20 27 34
80 82 81 82 82 81 78 74 73 71 63 63 55 58 62 62 49 65 56 45 42 45 43 41 34 32 26 20 11 6 8 16 25 36 27 37 45 41 25 12 27 14 23
97 90 88 83 82 82 76 72 73 77 70 61 50 49 57 50 53 40 53 53 53 51 53 41 37 31 23 16 9 6 11 16 24 39 34 42 44 32 21 12 27 26 13
Wind_Direction_500mb
225 225 228 232 238 241 243 243 246 249 250 251 254 255 253 257 257 258 260 264 268 272 278 284 287 291 294 296 295 294 287 285 278 268 264 267 263 264 267 268 270 267 263
234 234 235 239 243 246 250 253 254 256 259 259 259 257 259 263 265 263 262 268 274 278 281 284 282 287 294 295 291 289 289 280 277 272 263 263 264 265 266 271 269 272 266
243 245 247 250 253 255 256 256 259 261 263 266 262 260 265 267 266 263 262 269 274 276 280 278 278 281 283 286 288 286 281 282 273 273 268 263 261 264 266 271 270 271 270
254 255 258 259 259 260 263 264 266 265 266 269 271 269 266 267 267 267 268 270 269 272 277 274 274 275 277 279 279 283 283 277 271 266 263 258 257 261 267 273 277 271 271
260 259 262 265 266 267 267 268 270 270 272 271 270 270 267 266 265 269 269 269 266 270 272 273 276 281 280 275 280 277 273 269 268 265 256 247 242 246 258 258 270 274 272
266 271 271 271 272 273 273 270 271 274 272 273 273 271 270 267 268 271 272 273 271 265 258 262 273 280 275 277 278 278 283 282 276 274 270 262 258 255 254 260 258 266 267
269 271 273 272 271 276 277 278 274 270 271 271 272 272 271 270 269 271 275 275 277 265 259 262 267 274 269 268 275 277 282 288 280 273 274 258 257 260 257 255 257 263 265
279 282 279 281 283 284 286 281 282 280 279 275 270 273 275 279 276 275 277 279 279 269 261 258 259 268 263 267 266 273 275 279 283 288 273 260 266 267 259 257 256 263 273
275 279 282 281 280 286 289 291 288 284 280 280 278 278 282 280 279 273 266 288 299 293 268 261 257 260 258 263 266 270 276 281 282 281 273 276 272 273 264 261 252 252 273
281 284 286 285 281 281 284 286 290 286 282 275 271 269 273 279 280 280 272 278 272 292 284 270 263 263 258 259 266 270 274 280 278 274 278 277 272 262 258 258 251 250 262
285 286 287 289 288 291 291 294 293 295 287 278 278 268 262 302 292 269 270 268 277 263 261 258 260 267 267 266 265 270 267 270 265 283 293 288 267 267 273 250 247 241 250
295 302 304 303 302 297 293 295 293 293 289 289 287 277 270 267 255 265 268 263 276 263 243 272 264 256 262 266 268 260 265 259 264 272 271 282 245 272 277 249 250 254 264
300 307 315 313 314 310 303 299 301 304 302 292 290 289 282 269 268 270 271 265 267 264 260 248 277 251 262 263 263 257 255 258 260 262 266 264 266 273 271 261 256 261 270
302 308 307 306 314 318 316 307 302 304 303 298 296 288 282 273 271 268 267 263 255 249 235 258 259 232 258 255 256 249 250 255 261 257 265 269 276 275 264 267 263 266 265
287 293 294 300 308 313 313 315 314 306 299 294 293 285 282 277 271 272 266 261 243 242 252 248 229 218 243 251 250 254 255 257 255 261 265 268 268 269 261 266 265 263 267
293 300 303 306 309 310 304 298 300 312 312 294 290 292 283 274 269 271 266 256 255 254 243 229 226 228 238 244 247 248 252 251 257 268 271 276 273 268 267 267 267 269 271
298 304 303 307 308 311 307 307 304 298 300 306 290 286 289 288 279 272 266 255 249 247 233 239 235 236 241 241 241 259 255 255 261 277 282 278 271 266 265 267 270 268 269
292 296 299 305 307 308 310 311 310 315 308 308 302 295 284 285 281 274 262 257 263 250 236 247 245 240 244 245 258 250 248 262 273 277 278 276 272 265 267 268 266 262 263
293 293 292 298 303 312 310 311 310 311 316 307 311 303 296 286 281 277 265 255 252 251 252 254 244 223 231 250 237 242 251 264 269 266 268 271 268 266 266 270 265 262 256
289 289 291 293 297 304 304 303 304 307 305 307 294 301 300 291 276 273 266 258 248 247 217 211 218 227 227 229 232 251 260 263 264 266 270 267 269 269 267 263 261 264 258
278 281 285 283 287 295 295 292 294 295 298 299 300 291 298 292 283 268 261 250 229 221 228 221 225 225 227 227 232 245 249 251 273 290 287 291 284 276 270 263 256 251 253
278 280 278 282 282 282 280 289 290 287 289 291 295 286 291 291 287 269 258 236 227 242 235 236 233 225 211 219 224 215 229 291 342 333 331 337 310 301 289 270 256 251 245
281 277 276 279 281 280 278 290 294 277 281 281 285 281 287 281 273 278 271 251 232 228 227 213 211 207 209 199 186 188 231 357 350 345 328 333 325 313 322 297 277 253 240
279 277 277 277 278 278 276 283 295 277 278 272 274 274 274 273 274 258 253 233 247 246 213 210 209 180 172 172 173 185 264 328 336 345 336 320 336 330 347 355 297 258 238
273 269 273 276 274 272 272 275 288 289 274 271 264 262 271 266 275 259 237 241 244 202 186 187 174 171 174 175 185 226 288 322 331 336 341 330 335 329 334 356 9 299 245
277 275 273 266 263 266 266 270 275 286 265 268 258 258 257 272 262 242 223 234 212 188 187 187 184 186 194 205 226 283 293 320 325 333 341 328 328 336 324 330 341 352 230
Wind_Speed_850mb
57 53 52 51 50 48 47 46 45 45 45 44 43 44 42 39 36 35 34 38 36 29 29 30 31 29 31 34 33 31 30 30 28 26 26 26 27 27 26 23 24 25 25
59 58 57 57 57 55 52 51 50 51 53 52 51 49 48 43 41 42 38 38 37 36 38 38 36 32 35 36 36 36 34 33 33 30 29 29 28 29 28 30 27 28 29
62 60 59 60 60 58 56 56 55 53 54 56 61 57 50 46 43 41 41 43 42 42 46 44 41 40 39 35 34 36 39 35 36 34 32 31 31 32 30 31 34 32 32
63 61 62 65 66 65 62 62 61 59 59 57 56 53 51 51 51 49 50 51 50 50 55 51 48 45 44 43 41 39 38 39 38 37 34 34 32 34 34 33 38 38 38
62 66 66 70 68 68 68 67 69 66 65 66 66 61 59 59 61 55 58 60 58 55 55 48 46 49 50 47 42 43 44 45 45 45 45 42 40 34 38 36 40 43 43
47 48 54 60 62 67 70 70 71 70 73 76 73 72 74 72 72 67 69 68 69 64 57 52 46 49 48 46 48 49 50 48 48 48 51 50 42 40 44 45 46 48 46
53 56 60 65 64 70 75 77 78 76 79 81 80 85 86 82 79 77 77 82 79 70 63 57 53 54 47 40 41 43 44 42 43 47 50 49 49 51 54 54 57 54 55
48 51 57 63 62 70 79 82 80 86 86 86 86 78 71 76 76 72 74 85 88 84 75 71 63 58 47 44 44 45 44 40 42 47 49 55 55 56 61 69 60 68 60
48 50 56 55 61 65 71 74 75 79 82 82 76 73 66 62 66 60 51 49 63 89 90 84 75 63 56 50 49 46 45 46 48 48 54 58 62 65 69 61 61 74 69
52 56 60 61 58 63 67 70 73 76 78 75 75 67 69 74 72 57 78 77 98 129 103 79 77 67 63 55 51 50 50 52 52 48 56 60 63 65 70 78 82 88 63
40 47 55 60 62 63 65 57 60 62 70 79 79 73 57 60 79 71 71 63 46 59 80 83 71 65 64 62 59 56 51 48 45 44 35 48 50 53 65 66 66 69 56
44 45 45 47 48 51 53 54 53 53 59 60 61 67 75 77 77 75 73 71 66 60 68 67 58 62 64 74 69 54 52 50 50 46 37 27 26 38 46 54 54 52 58
30 35 46 52 53 53 56 56 52 48 47 50 56 57 56 57 66 76 76 74 68 61 75 75 66 80 81 69 68 56 52 51 51 48 40 40 51 54 48 53 57 58 58
35 38 42 43 50 50 46 46 43 39 42 47 51 57 65 71 77 78 80 61 48 44 54 74 85 83 65 57 55 45 50 48 46 43 43 46 48 51 49 47 44 49 53
34 38 41 46 49 50 49 44 42 40 38 42 49 56 65 68 73 83 79 71 59 49 60 43 59 69 56 57 49 45 45 40 44 42 43 43 44 41 40 45 46 47 50
40 44 49 50 51 55 54 51 47 41 42 46 49 54 59 65 71 74 71 70 69 70 75 48 63 61 56 51 45 44 42 38 39 36 36 38 45 46 45 49 53 56 56
52 53 50 53 54 53 53 50 51 53 54 51 51 57 58 61 65 66 58 61 65 73 86 61 60 74 52 57 46 49 47 39 37 45 53 53 47 44 47 48 48 52 49
57 60 56 51 50 51 52 54 53 49 48 49 50 52 59 61 66 62 66 71 75 71 86 91 82 80 59 60 48 45 40 39 41 51 51 42 40 47 53 51 50 47 47
64 63 59 57 51 52 52 53 55 52 52 50 49 55 49 53 64 67 67 68 63 76 99 80 72 59 53 46 41 41 39 39 46 49 48 46 42 44 46 43 44 43 44
63 63 67 67 59 63 59 54 54 55 54 57 57 55 58 65 64 66 66 64 64 71 52 56 56 50 44 50 45 38 41 42 39 42 41 46 48 50 56 58 53 44 43
69 70 71 65 69 73 65 56 58 61 62 61 60 55 60 56 53 54 58 51 63 58 61 62 55 54 53 49 44 38 28 20 15 12 15 20 33 40 44 51 53 55 48
75 75 75 74 71 69 63 57 59 65 65 64 61 53 57 61 56 46 49 51 78 77 77 61 54 55 52 39 29 21 14 8 13 19 33 22 25 17 21 30 40 46 50
81 78 78 78 78 73 74 66 70 67 66 62 55 49 45 55 57 54 39 37 45 51 60 54 51 46 38 33 29 18 6 8 19 25 36 37 25 22 22 26 32 38 45
81 85 86 84 83 82 77 75 65 63 62 64 54 53 56 53 64 60 51 46 50 44 44 41 35 38 35 31 21 10 3 11 20 30 34 36 36 29 22 18 20 27 34
80 82 81 82 82 81 78 74 73 71 63 63 55 58 62 62 49 65 56 45 42 45 43 41 34 32 26 20 11 6 8 16 25 36 27 37 45 41 25 12 27 14 23
97 90 88 83 82 82 76 72 73 77 70 61 50 49 57 50 53 40 53 53 53 51 53 41 37 31 23 16 9 6 11 16 24 39 34 42 44 32 21 12 27 26 13
Wind_Direction_850mb
225 225 228 232 238 241 243 243 246 249 250 251 254 255 253 257 257 258 260 264 268 272 278 284 287 291 294 296 295 294 287 285 278 268 264 267 263 264 267 268 270 267 263
234 234 235 239 243 246 250 253 254 256 259 259 259 257 259 263 265 263 262 268 274 278 281 284 282 287 294 295 291 289 289 280 277 272 263 263 264 265 266 271 269 272 266
243 245 247 250 253 255 256 256 259 261 263 266 262 260 265 267 266 263 262 269 274 276 280 278 278 281 283 286 288 286 281 282 273 273 268 263 261 264 266 271 270 271 270
254 255 258 259 259 260 263 264 266 265 266 269 271 269 266 267 267 267 268 270 269 272 277 274 274 275 277 279 279 283 283 277 271 266 263 258 257 261 267 273 277 271 271
260 259 262 265 266 267 267 268 270 270 272 271 270 270 267 266 265 269 269 269 266 270 272 273 276 281 280 275 280 277 273 269 268 265 256 247 242 246 258 258 270 274 272
266 271 271 271 272 273 273 270 271 274 272 273 273 271 270 267 268 271 272 273 271 265 258 262 273 280 275 277 278 278 283 282 276 274 270 262 258 255 254 260 258 266 267
269 271 273 272 271 276 277 278 274 270 271 271 272 272 271 270 269 271 275 275 277 265 259 262 267 274 269 268 275 277 282 288 280 273 274 258 257 260 257 255 257 263 265
279 282 279 281 283 284 286 281 282 280 279 275 270 273 275 279 276 275 277 279 279 269 261 258 259 268 263 267 266 273 275 279 283 288 273 260 266 267 259 257 256 263 273
275 279 282 281 280 286 289 291 288 284 280 280 278 278 282 280 279 273 266 288 299 293 268 261 257 260 258 263 266 270 276 281 282 281 273 276 272 273 264 261 252 252 273
281 284 286 285 281 281 284 286 290 286 282 275 271 269 273 279 280 280 272 278 272 292 284 270 263 263 258 259 266 270 274 280 278 274 278 277 272 262 258 258 251 250 262
285 286 287 289 288 291 291 294 293 295 287 278 278 268 262 302 292 269 270 268 277 263 261 258 260 267 267 266 265 270 267 270 265 283 293 288 267 267 273 250 247 241 250
295 302 304 303 302 297 293 295 293 293 289 289 287 277 270 267 255 265 268 263 276 263 243 272 264 256 262 266 268 260 265 259 264 272 271 282 245 272 277 249 250 254 264
300 307 315 313 314 310 303 299 301 304 302 292 290 289 282 269 268 270 271 265 267 264 260 248 277 251 262 263 263 257 255 258 260 262 266 264 266 273 271 261 256 261 270
302 308 307 306 314 318 316 307 302 304 303 298 296 288 282 273 271 268 267 263 255 249 235 258 259 232 258 255 256 249 250 255 261 257 265 269 276 275 264 267 263 266 265
287 293 294 300 308 313 313 315 314 306 299 294 293 285 282 277 271 272 266 261 243 242 252 248 229 218 243 251 250 254 255 257 255 261 265 268 268 269 261 266 265 263 267
293 300 303 306 309 310 304 298 300 312 312 294 290 292 283 274 269 271 266 256 255 254 243 229 226 228 238 244 247 248 252 251 257 268 271 276 273 268 267 267 267 269 271
298 304 303 307 308 311 307 307 304 298 300 306 290 286 289 288 279 272 266 255 249 247 233 239 235 236 241 241 241 259 255 255 261 277 282 278 271 266 265 267 270 268 269
292 296 299 305 307 308 310 311 310 315 308 308 302 295 284 285 281 274 262 257 263 250 236 247 245 240 244 245 258 250 248 262 273 277 278 276 272 265 267 268 266 262 263
293 293 292 298 303 312 310 311 310 311 316 307 311 303 296 286 281 277 265 255 252 251 252 254 244 223 231 250 237 242 251 264 269 266 268 271 268 266 266 270 265 262 256
289 289 291 293 297 304 304 303 304 307 305 307 294 301 300 291 276 273 266 258 248 247 217 211 218 227 227 229 232 251 260 263 264 266 270 267 269 269 267 263 261 264 258
278 281 285 283 287 295 295 292 294 295 298 299 300 291 298 292 283 268 261 250 229 221 228 221 225 225 227 227 232 245 249 251 273 290 287 291 284 276 270 263 256 251 253
278 280 278 282 282 282 280 289 290 287 289 291 295 286 291 291 287 269 258 236 227 242 235 236 233 225 211 219 224 215 229 291 342 333 331 337 310 301 289 270 256 251 245
281 277 276 279 281 280 278 290 294 277 281 281 285 281 287 281 273 278 271 251 232 228 227 213 211 207 209 199 186 188 231 357 350 345 328 333 325 313 322 297 277 253 240
279 277 277 277 278 278 276 283 295 277 278 272 274 274 274 273 274 258 253 233 247 246 213 210 209 180 172 172 173 185 264 328 336 345 336 320 336 330 347 355 297 258 238
273 269 273 276 274 272 272 275 288 289 274 271 264 262 271 266 275 259 237 241 244 202 186 187 174 171 174 175 185 226 288 322 331 336 341 330 335 329 334 356 9 299 245
277 275 273 266 263 266 266 270 275 286 265 268 258 258 257 272 262 242 223 234 212 188 187 187 184 186 194 205 226 283 293 320 325 333 341 328 328 336 324 330 341 352 230